CAPE
1031 914 825 769 749 748 659 550 600 771 803 737 631 548 513 593 730 596 841 883 969 1051 1054 1106 1204 1060 874 798 769 980 995 911 849 786 728 642 639 1447 1682 1471 1260 1225 960 616 510 512 626 648 559 336 156 117 98 75 68 93 74 67 18 8 6 4 0 0 0 0 0 0 0 0 0 0 1 2 1 0 0 0 1 1 1 2 1 3 2
1215 1021 853 860 668 692 668 591 621 713 874 900 997 890 812 604 756 752 800 901 845 1157 1199 1164 1108 1156 1050 837 1132 923 975 1110 976 777 703 761 618 1077 1600 1375 1222 1096 841 351 273 842 858 756 639 276 200 138 110 123 138 134 121 111 81 30 6 0 0 0 0 0 0 0 0 0 0 0 0 0 0 0 0 0 1 2 1 2 2 2 2
1134 979 842 639 618 712 718 768 668 627 1052 1094 1030 1019 929 699 773 1091 1242 1088 1203 1297 1370 1298 1264 1113 1178 992 1069 1098 1153 1217 983 770 714 599 481 654 980 1443 1664 1570 1298 819 450 866 916 891 615 372 320 281 272 244 184 139 132 142 129 44 31 20 13 0 0 0 0 0 0 0 0 0 0 0 0 0 0 0 0 0 1 2 1 1 1
1094 992 734 778 887 860 881 901 724 914 993 932 972 711 814 938 881 1333 1419 1473 1325 1398 1634 1660 1464 1124 1072 1095 879 936 1057 1085 833 795 618 549 568 1018 1244 1198 1678 1642 1612 1588 1668 965 773 804 702 540 464 399 380 257 215 182 174 165 168 127 83 59 48 5 0 0 0 0 0 0 0 0 0 0 0 0 0 0 0 0 0 0 0 0 0
990 786 883 1115 1205 970 1022 887 867 879 804 802 549 365 664 791 1109 1280 1319 1315 1258 1145 1242 1551 1508 1269 1194 1010 942 807 864 831 836 809 830 1178 1038 1028 1161 1005 1052 1317 1153 1160 1123 1076 1018 759 585 759 682 696 689 672 506 468 403 440 267 204 139 109 119 26 0 0 0 0 0 0 0 0 0 0 0 0 0 0 0 0 0 0 0 0 0
787 788 929 1453 1506 1292 1064 887 659 665 524 660 566 565 1001 1115 1103 1318 1178 1395 1008 831 1203 1406 1152 1104 786 745 562 581 952 929 858 854 1316 1414 1501 1155 1023 1066 980 1080 959 814 826 771 648 728 906 999 940 870 652 637 640 598 629 610 461 396 261 155 160 122 17 0 0 0 0 0 0 0 0 0 0 0 0 0 0 0 0 0 0 0 0
738 964 1105 1522 1355 1011 946 842 537 478 561 645 738 942 1088 1035 1105 1191 1201 863 816 832 989 1114 1021 658 553 598 583 594 741 747 866 1021 1334 1407 1582 1542 1652 1517 1526 1280 1030 779 855 565 547 697 794 733 723 842 849 678 654 620 630 635 599 524 452 322 228 228 152 30 11 0 0 0 0 0 0 0 0 0 0 0 0 0 0 0 0 0 0
808 1017 1104 833 874 804 710 561 520 574 569 617 669 878 932 996 1122 1438 1149 849 808 784 855 748 613 527 454 338 380 463 628 651 910 1110 1240 1372 1149 1277 1390 1431 1359 1292 1003 1290 1097 604 574 768 638 488 400 650 794 707 633 695 723 676 569 644 652 694 638 520 384 240 121 32 0 0 0 0 0 0 0 0 0 0 0 0 0 0 0 0 0
830 832 826 738 676 823 769 596 570 732 638 748 914 978 973 966 999 1266 1358 773 864 833 725 624 377 341 317 300 419 460 558 511 962 1065 1224 1133 1098 1104 1170 1249 1102 622 941 902 1060 992 745 664 753 610 585 635 741 667 712 737 743 803 938 749 691 734 640 433 608 503 311 236 235 26 87 0 0 0 0 0 0 0 0 0 0 0 0 0 0
1008 944 1005 751 698 840 624 552 674 846 871 807 858 669 1028 1183 1018 1003 790 754 749 782 723 588 406 269 281 354 300 375 303 512 867 944 1102 774 728 583 537 844 619 639 434 462 454 490 466 233 181 184 190 378 304 536 857 784 810 812 876 843 726 783 756 718 609 459 468 304 320 297 140 206 11 6 1 0 0 0 0 0 0 0 0 0 0
1172 1045 904 843 707 583 593 540 751 1003 798 691 614 547 530 853 1077 610 672 769 788 859 786 670 497 441 353 492 420 404 405 279 218 233 663 667 590 435 393 462 444 448 475 578 446 374 315 471 361 404 24 0 0 68 219 308 529 662 734 878 875 679 607 535 490 451 370 442 392 292 416 250 122 23 27 12 18 0 0 0 0 0 0 0 0
1131 1134 1016 702 577 635 551 628 677 798 800 730 673 624 571 528 649 584 584 573 756 876 884 792 649 431 415 426 734 865 799 852 937 954 912 718 627 525 382 400 414 414 552 483 315 303 233 221 214 64 5 0 0 0 9 67 206 356 648 587 862 835 737 570 584 680 584 409 303 259 289 258 198 159 247 166 90 57 85 14 2 0 0 0 0
1022 1041 968 767 654 675 709 725 615 766 854 863 743 669 626 668 674 642 578 598 642 693 516 813 388 341 372 391 543 749 721 670 717 640 392 346 402 384 356 421 418 392 373 348 294 257 148 6 87 67 0 0 0 0 1 62 239 555 649 676 800 786 698 522 644 510 380 556 376 297 169 190 175 272 270 301 252 226 226 164 87 0 9 0 2
1011 1152 1064 1071 729 721 833 805 653 792 850 776 655 532 581 716 723 688 665 640 728 581 500 776 533 373 271 167 186 222 196 334 502 576 582 556 471 410 444 445 470 584 366 333 308 71 2 0 0 0 0 0 11 156 187 234 317 316 679 604 622 734 645 596 528 480 419 525 434 221 144 61 154 244 207 246 290 354 355 314 255 140 41 42 40
993 1137 1203 1038 838 794 884 806 692 588 510 500 605 588 676 714 763 736 663 698 689 751 1006 1132 590 494 353 316 246 206 110 245 178 304 422 326 303 306 288 298 269 322 321 271 326 13 0 0 0 0 0 0 37 115 140 111 141 364 515 681 576 560 793 421 598 865 576 313 416 286 200 144 226 234 207 173 167 110 158 150 210 155 143 120 83
950 1140 1174 918 868 909 848 844 744 814 691 570 637 656 750 799 912 964 724 577 596 620 724 978 734 559 514 678 456 325 234 203 154 89 192 268 270 255 225 258 316 322 300 299 27 0 0 0 0 0 0 0 21 95 140 315 141 263 255 278 620 660 644 1038 798 704 413 401 489 257 108 196 351 420 334 376 268 177 219 186 213 149 184 108 137
1060 1039 943 964 887 838 759 800 797 878 754 762 636 721 799 828 1024 1055 1133 844 691 859 602 696 988 928 674 367 245 596 430 104 129 105 124 209 175 226 271 274 310 291 180 10 0 0 0 0 0 0 0 0 1 51 109 164 371 391 177 173 231 435 533 401 505 867 698 465 291 81 0 0 0 14 70 148 310 320 284 265 256 188 100 135 240
992 989 890 884 859 808 829 831 760 717 757 932 746 657 854 989 1240 1474 1540 1438 1097 912 965 783 1000 735 759 1206 1313 411 268 265 250 136 123 131 110 92 144 131 266 168 60 0 0 0 0 0 0 0 0 0 0 4 43 86 94 75 56 60 48 0 21 90 69 93 100 50 23 2 0 0 0 0 0 0 0 8 56 142 199 191 118 3 15
1001 975 903 830 800 850 766 626 708 869 728 800 995 976 712 922 1008 1362 1295 1314 1372 1320 1148 891 588 909 876 1216 1361 845 492 244 364 222 176 70 40 37 80 70 62 12 0 0 0 0 0 0 0 0 0 0 0 0 0 80 84 74 54 0 0 0 0 1 8 1 0 0 0 0 0 0 0 0 0 0 0 0 0 2 14 54 102 79 1
1025 1002 944 929 894 895 730 592 676 879 765 925 1082 1063 938 908 877 1089 1184 1406 1420 1473 1424 996 665 1060 788 1114 721 729 565 374 384 422 290 121 18 12 5 2 1 0 0 0 0 0 0 0 0 0 0 0 0 0 0 21 17 0 0 0 0 0 0 0 0 0 0 0 0 0 0 0 0 0 0 0 0 0 0 0 0 0 0 6 0
1002 948 837 801 834 827 750 764 857 805 752 1002 1065 878 1096 1058 899 1013 1054 1030 1164 1312 895 849 940 1193 644 532 463 382 286 612 631 452 318 140 41 46 2 2 0 0 0 0 0 0 0 0 0 0 0 0 0 0 0 0 0 0 0 0 0 0 0 0 0 0 0 0 0 0 0 0 0 0 0 0 0 0 0 0 0 0 0 0 0
920 810 727 652 785 929 846 898 1076 913 719 784 855 795 706 980 1010 951 983 1172 1186 790 854 814 941 970 1040 652 398 263 208 295 450 534 433 323 157 10 20 22 8 0 0 0 0 0 0 0 0 0 0 0 0 0 0 0 0 0 0 0 0 0 0 0 0 0 0 0 0 0 0 0 0 0 0 0 0 0 0 0 0 0 0 0 0
994 788 829 665 637 807 835 936 1190 1253 1053 1084 1166 1074 963 784 818 836 795 794 828 710 762 1001 1053 959 761 525 472 342 345 382 412 391 421 391 194 53 19 14 2 0 0 0 0 0 0 0 0 0 0 0 0 0 0 0 0 0 0 0 0 0 0 0 0 0 0 0 0 0 0 0 0 0 0 0 0 0 0 0 0 0 0 0 0
941 965 916 914 788 734 736 871 1018 1289 1316 1437 1384 1406 908 780 754 558 590 539 545 576 496 875 905 938 968 801 723 858 665 504 429 502 461 466 340 102 25 5 0 0 0 0 0 0 0 0 0 0 0 0 0 0 0 0 0 0 0 0 0 0 0 0 0 0 0 0 0 0 0 0 0 0 0 0 0 0 0 0 0 0 0 0 0
883 794 704 766 1007 1020 951 841 969 1196 1429 1567 1730 1483 1101 1042 862 731 709 575 611 672 670 648 1104 1183 1171 1016 674 496 381 243 426 500 681 645 472 189 45 21 10 0 0 0 0 0 0 0 0 0 0 0 0 0 0 0 0 0 0 0 0 0 0 0 0 0 0 0 0 0 0 0 0 0 0 0 0 0 0 0 0 0 0 0 0
844 849 640 450 580 989 1150 1272 1080 958 1114 1446 1536 1539 1268 1059 794 783 960 815 665 703 583 1556 1358 1365 1500 1069 887 334 276 150 440 533 630 608 396 191 30 41 20 0 0 0 0 0 0 0 0 0 0 0 0 0 0 0 0 0 0 0 0 0 0 0 0 0 0 0 0 0 0 0 0 0 0 0 0 0 0 0 0 0 0 0 0
732 723 380 587 600 602 680 972 941 787 797 1015 1202 1327 1403 1126 852 779 775 1094 1092 1145 1146 1118 1250 1203 1277 1183 1098 524 309 152 248 305 391 444 493 265 125 62 11 0 0 0 0 0 0 0 0 0 0 0 0 0 0 0 0 0 0 0 0 0 0 0 0 0 0 0 0 0 0 0 0 0 0 0 0 0 0 0 0 0 0 0 0
621 467 361 553 796 856 795 962 959 983 992 1040 1075 974 1003 1343 1228 1105 1218 657 1115 1045 1117 1048 1214 1283 1283 1250 919 549 339 154 107 336 288 577 591 396 284 56 7 0 0 0 0 0 0 0 0 0 0 0 0 0 0 0 0 0 0 0 0 0 0 0 0 0 0 0 0 0 0 0 0 0 0 0 0 0 0 0 0 0 0 0 0
601 410 208 304 630 974 1023 1036 1133 1157 1165 1106 1143 1204 1260 1348 1270 1197 1103 850 1054 1054 1139 1165 1343 1285 1201 1152 1099 857 413 170 83 312 539 614 514 501 155 48 0 0 0 0 0 0 0 0 0 0 0 0 0 0 0 0 0 0 0 0 0 0 0 0 0 0 0 0 0 0 0 0 0 0 0 0 0 0 0 0 0 0 0 0 0
479 148 206 385 600 526 881 824 827 946 1100 965 865 889 1027 1056 967 1000 894 936 1107 966 1034 1103 1103 1098 1203 1090 1120 834 484 236 111 252 328 484 499 477 314 97 18 0 0 0 0 0 0 0 0 0 0 0 0 0 0 0 0 0 0 0 0 0 0 0 0 0 0 0 0 0 0 0 0 0 0 0 0 0 0 0 0 0 0 0 0
207 95 149 240 488 515 585 562 597 621 615 645 517 558 702 726 597 656 667 596 736 688 514 699 786 923 1132 1273 1175 1050 520 325 147 96 170 240 456 416 288 140 36 0 0 0 0 1 0 0 0 0 0 0 0 0 0 0 0 0 0 0 0 0 0 0 0 0 0 0 0 0 0 0 0 0 0 0 0 0 0 0 0 0 0 0 0
203 115 103 184 378 417 338 393 424 502 553 556 542 572 624 633 638 539 522 358 239 253 166 176 332 664 1007 1198 1044 964 518 357 246 145 72 89 192 150 80 64 82 342 106 1 0 0 1 0 0 0 0 0 0 0 0 0 0 0 0 0 0 0 0 0 0 0 0 0 0 0 0 0 0 0 0 0 0 0 0 0 0 0 0 0 0
23 37 50 83 106 138 152 215 460 520 558 502 498 504 523 508 307 188 0 0 0 0 0 0 260 471 612 727 725 663 567 547 350 222 112 74 33 47 23 16 12 63 38 2 0 4 4 2 2 0 0 0 0 0 0 0 0 0 0 0 0 0 0 0 0 0 0 0 0 0 0 0 0 0 0 0 0 0 0 0 0 0 0 0 0
0 0 0 24 32 22 38 58 59 42 2 0 0 15 0 0 0 0 0 0 0 0 0 0 0 9 52 83 308 544 635 876 410 293 193 132 8 10 1 2 2 11 38 0 0 0 0 0 0 0 0 0 0 0 0 0 0 0 0 0 0 0 0 0 0 0 0 0 0 0 0 0 0 0 0 0 0 0 0 0 0 0 0 0 0
0 0 0 0 0 0 0 0 0 0 0 0 0 5 36 8 0 0 0 1 4 3 7 0 0 0 0 0 0 0 117 516 597 372 258 231 53 0 4 0 0 0 0 0 0 0 0 0 0 0 0 0 0 0 0 0 0 0 0 0 0 0 0 0 0 0 0 0 0 0 0 0 0 0 0 0 0 0 0 0 0 0 0 0 0
0 0 0 0 0 0 0 0 0 0 0 0 0 0 0 5 1 0 0 0 17 83 13 0 0 0 20 25 4 0 0 141 277 490 466 390 185 1 9 1 5 0 0 0 0 0 0 0 0 0 0 0 0 0 0 0 0 0 0 0 0 0 0 0 0 0 0 0 0 0 0 0 0 0 0 0 0 0 0 0 0 0 0 0 0
0 0 0 0 0 0 0 0 0 0 0 0 0 0 4 34 26 0 0 0 5 8 25 0 0 7 8 85 0 0 32 123 73 108 132 270 208 153 144 1 0 0 0 0 0 0 0 0 0 0 0 0 0 0 0 0 0 0 0 0 0 0 0 0 0 0 0 0 0 0 0 0 0 0 0 0 0 0 0 0 0 0 0 0 0
0 0 0 0 0 0 0 0 0 0 0 0 0 0 0 0 7 29 9 2 0 0 0 0 0 1 36 6 0 6 80 283 144 136 59 66 18 180 77 8 0 0 0 0 0 0 0 0 0 0 0 0 0 0 0 0 0 0 0 0 0 0 0 0 0 0 0 0 0 0 0 0 0 0 0 0 0 0 0 0 0 0 0 0 0
0 0 0 0 0 0 0 0 0 0 0 0 0 0 0 0 0 2 5 8 3 5 0 0 0 0 0 0 11 25 80 251 358 224 162 183 159 104 70 138 0 0 0 0 0 0 0 0 0 0 0 0 0 0 0 0 0 0 0 0 0 0 0 0 0 0 0 0 0 0 0 0 0 0 0 0 0 0 0 0 0 0 0 0 0
0 0 0 0 0 0 0 0 0 0 0 0 0 0 0 0 0 1 4 25 3 13 11 0 0 0 0 0 0 0 17 64 293 410 367 307 163 243 130 50 11 0 2 0 0 0 0 0 0 0 0 0 0 0 0 0 0 0 0 0 0 0 0 0 0 0 0 0 0 0 0 0 0 0 0 0 0 0 0 0 0 0 0 0 0
2 0 0 0 0 0 0 0 0 0 0 0 0 0 0 0 0 0 2 0 2 1 8 10 8 0 0 0 1 22 29 17 0 56 82 96 285 287 294 100 102 63 66 5 0 0 0 0 0 0 0 0 0 0 0 0 0 0 0 0 0 0 0 0 0 0 0 0 0 0 0 0 0 0 0 0 0 0 0 0 0 0 0 0 0
0 0 0 0 0 0 0 0 0 0 0 0 0 0 0 0 0 0 4 26 0 6 5 31 64 17 12 7 1 0 0 0 0 0 0 0 0 184 527 246 139 96 96 42 1 0 0 0 0 0 0 0 0 1 0 0 0 2 0 0 0 0 0 0 0 0 0 0 0 0 0 0 0 0 0 0 0 0 0 0 0 0 0 0 0
0 0 0 0 0 0 0 0 0 0 1 2 0 0 0 0 0 0 0 20 63 109 72 88 68 61 48 0 57 46 0 0 0 0 0 0 0 0 0 2 38 148 127 55 22 39 0 0 0 27 2 12 34 18 0 10 36 0 0 0 0 0 0 0 0 0 0 0 0 0 0 0 0 0 0 0 0 0 0 0 0 0 0 0 0
0 0 0 0 0 2 1 0 0 0 1 0 0 0 0 0 0 0 0 0 0 13 82 58 40 67 58 156 113 128 88 116 138 34 0 0 0 0 0 0 0 0 0 228 164 244 144 66 145 132 35 21 69 160 0 0 1 0 0 0 0 0 0 0 0 0 0 0 0 0 0 0 0 0 0 0 0 0 0 0 0 0 0 0 0
0 0 0 0 0 0 0 0 0 0 0 0 0 0 0 0 0 0 0 0 0 1 1 0 2 12 94 137 317 230 31 5 0 48 210 115 0 0 0 0 0 0 0 0 0 215 358 169 126 252 242 120 179 159 57 2 1 0 0 0 0 0 0 0 0 0 0 0 0 0 0 0 0 0 0 0 0 0 0 0 0 0 0 0 0
0 0 0 0 0 0 0 0 0 0 0 0 0 0 0 0 0 0 0 0 0 0 3 3 31 60 78 70 67 149 285 154 188 247 197 223 196 18 0 0 25 0 0 0 0 0 8 161 267 255 463 446 128 330 237 0 0 0 0 0 0 0 0 0 0 0 0 0 0 0 0 0 0 0 0 0 0 0 0 0 0 0 0 0 0
0 0 0 0 0 0 0 0 0 0 0 0 0 0 0 0 0 1 36 44 105 91 36 7 4 3 19 49 113 151 240 321 272 148 196 241 214 248 196 216 221 244 12 0 0 0 0 4 217 375 601 730 363 319 34 0 0 0 0 0 0 0 0 0 0 0 0 0 0 0 0 0 0 0 0 0 0 0 0 0 0 0 0 0 0
0 0 0 0 0 0 0 0 0 0 0 0 0 0 0 0 0 0 0 4 13 84 126 79 42 56 31 43 122 232 336 363 129 0 0 53 153 186 208 243 231 179 74 36 0 0 0 11 75 116 158 376 65 46 84 0 0 0 0 0 0 0 0 0 0 0 0 0 0 1 0 0 0 0 0 0 0 0 0 0 0 0 0 0 0
41 38 29 26 5 16 20 9 0 0 0 0 0 0 0 0 0 0 0 0 0 0 0 0 145 170 265 277 288 307 338 401 184 81 0 0 16 192 293 392 460 326 100 20 0 0 0 0 0 0 0 0 0 0 0 0 0 0 0 0 0 0 0 1 0 0 0 0 0 0 0 0 0 0 0 0 0 0 0 0 0 0 0 0 0
39 64 55 60 70 43 37 51 76 94 29 0 0 0 0 0 0 0 0 0 0 0 0 0 37 239 245 251 274 295 334 371 388 377 374 338 255 278 418 456 479 451 347 196 0 0 0 146 231 242 190 0 0 0 185 0 0 0 0 0 0 0 0 0 0 0 0 0 0 0 0 0 0 0 0 0 0 0 0 0 0 0 0 0 0
161 162 121 79 93 134 150 131 108 121 131 112 83 0 0 0 0 0 0 0 0 0 0 0 0 19 154 162 260 280 288 321 349 368 374 379 384 397 395 525 500 610 667 718 417 397 368 338 308 275 166 0 0 0 0 0 0 0 0 0 0 0 0 0 0 0 0 0 0 0 0 0 0 0 0 0 0 0 0 0 0 0 0 0 0
Wind_Speed
19 20 21 21 19 17 19 21 22 22 21 19 18 18 16 12 11 11 12 13 15 17 17 16 14 14 15 16 18 20 20 20 22 23 24 24 24 29 28 28 26 24 25 27 27 27 28 27 27 27 26 26 nan nan nan nan nan nan nan nan nan nan nan nan nan nan nan nan nan nan nan nan nan nan nan nan nan nan nan nan nan nan nan nan nan
21 21 21 19 17 16 19 22 22 21 18 17 15 14 12 11 11 12 13 14 16 16 15 15 13 13 14 16 18 18 18 19 20 21 23 23 24 26 29 26 24 21 24 29 28 29 27 27 27 27 27 26 27 27 28 27 27 27 nan nan nan nan nan nan nan nan nan nan nan nan nan nan nan nan nan nan nan nan nan nan nan nan nan nan nan
22 21 20 18 16 16 20 21 20 17 16 16 14 12 11 11 11 11 13 15 17 15 14 13 13 13 14 15 17 16 16 17 18 19 20 21 22 23 27 27 24 25 26 27 27 28 27 27 27 27 27 27 26 27 27 27 28 28 27 nan nan nan nan nan nan nan nan nan nan nan nan nan nan nan nan nan nan nan nan nan nan nan nan nan nan
21 20 20 17 15 18 20 19 17 16 16 15 13 11 11 11 11 12 14 16 16 14 12 12 12 13 14 16 16 15 15 15 16 17 18 19 20 21 22 25 29 28 29 30 31 31 27 26 26 27 27 26 26 26 25 25 25 26 27 27 nan nan nan nan nan nan nan nan nan nan nan nan nan nan nan nan nan nan nan nan nan nan nan nan nan
19 19 17 16 17 17 17 16 16 17 16 15 13 11 11 10 11 13 15 16 16 14 12 12 13 14 14 15 15 16 15 14 14 15 17 18 19 19 20 21 24 29 31 31 31 31 31 28 26 27 26 26 25 24 23 22 22 23 25 24 25 25 24 nan nan nan nan nan nan nan nan nan nan nan nan nan nan nan nan nan nan nan nan nan nan
18 15 14 18 17 14 13 14 16 16 14 13 12 10 10 11 12 13 14 14 14 14 13 13 15 15 15 15 16 15 14 12 13 14 15 15 16 17 19 20 21 22 25 29 28 28 28 27 27 26 25 23 22 23 21 20 19 20 20 21 21 21 22 23 nan nan nan nan nan nan nan nan nan nan nan nan nan nan nan nan nan nan nan nan nan
15 13 14 16 13 11 11 13 15 14 13 12 11 10 10 12 12 13 14 13 12 12 13 15 17 18 18 16 15 14 13 12 12 13 14 14 14 16 18 20 21 22 21 22 25 26 24 23 22 22 22 21 18 20 18 16 18 18 18 17 17 17 18 18 21 nan nan nan nan nan nan nan nan nan nan nan nan nan nan nan nan nan nan nan nan
13 12 13 12 9 9 10 13 13 12 11 11 10 11 11 12 11 12 14 13 13 12 13 16 18 18 16 13 14 13 13 12 12 13 14 14 14 16 17 19 20 22 22 21 20 21 21 22 21 20 19 18 18 19 18 16 16 16 15 15 15 13 15 15 17 19 20 nan nan nan nan nan nan nan nan nan nan nan nan nan nan nan nan nan nan
11 12 12 11 9 10 10 11 11 10 11 10 10 11 11 12 12 11 12 13 13 13 13 16 17 16 14 13 13 12 11 12 11 13 14 15 16 17 18 19 21 22 21 20 18 18 23 24 24 23 20 17 17 19 15 14 13 13 12 11 11 10 11 12 13 15 16 18 20 nan nan nan nan nan nan nan nan nan nan nan nan nan nan nan nan
12 12 13 11 11 11 11 11 11 10 10 10 11 11 11 12 12 11 11 13 13 13 13 15 17 16 14 14 13 12 12 12 12 13 13 15 16 17 17 18 19 21 20 18 17 17 17 18 20 23 23 22 21 18 16 14 13 12 11 11 10 10 12 11 11 13 15 15 16 18 21 22 nan nan nan nan nan nan nan nan nan nan nan nan nan
13 13 13 12 12 13 12 12 11 10 10 10 11 11 11 11 11 12 12 12 12 11 12 14 17 16 15 15 14 14 13 12 12 13 14 14 15 16 16 17 18 18 18 16 16 16 16 14 14 15 nan nan nan nan 16 15 14 15 15 14 14 13 13 14 14 14 14 13 16 16 18 19 19 nan nan nan nan nan nan nan nan nan nan nan nan
14 14 14 14 14 13 13 12 10 9 10 11 11 11 10 10 11 12 14 14 12 12 13 15 18 18 17 17 16 15 14 12 12 13 14 15 15 15 16 16 16 17 16 16 16 16 15 14 12 nan nan nan nan nan nan nan 16 17 18 19 18 18 18 17 17 19 18 17 16 16 16 17 17 16 16 16 nan nan nan nan nan nan nan nan nan
14 14 13 13 13 12 11 11 9 9 10 11 11 10 10 10 12 12 14 14 13 13 15 16 19 20 18 17 16 16 16 15 15 14 15 13 13 14 14 14 15 15 15 16 17 16 15 nan nan nan nan nan nan nan nan nan 19 21 20 21 21 21 20 20 22 22 22 22 22 20 19 18 16 12 12 13 14 15 17 17 nan nan nan nan nan
12 11 11 10 10 10 9 9 8 9 10 11 11 11 10 11 12 13 13 14 13 15 14 16 14 15 15 14 15 15 17 17 16 15 15 15 14 14 14 14 15 15 16 17 17 nan nan nan nan nan nan nan nan 17 18 19 21 22 22 24 24 24 26 28 28 26 25 23 22 20 19 nan 17 15 13 12 15 19 19 16 14 14 nan nan nan
12 10 10 9 9 8 8 8 8 9 10 11 11 11 10 10 12 14 15 13 14 14 13 10 14 14 14 16 14 13 12 16 18 18 17 16 16 17 16 16 17 17 18 18 19 nan nan nan nan nan nan nan nan 19 20 20 19 24 24 25 27 28 30 31 32 31 29 27 27 26 23 19 17 17 16 15 14 16 16 15 17 15 9 7 nan
12 11 10 9 8 8 8 9 8 8 10 11 11 11 10 10 11 13 15 16 13 13 12 11 13 16 15 13 14 13 17 17 19 nan 19 20 19 18 18 17 18 19 19 20 nan nan nan nan nan nan nan nan nan nan 21 21 19 25 25 23 25 28 30 32 33 34 32 32 32 30 28 28 27 26 24 22 19 16 18 17 14 14 18 13 8
14 12 11 10 10 10 9 9 9 10 11 12 12 11 10 9 11 13 13 15 14 13 13 12 10 13 13 16 15 13 16 18 19 19 17 19 21 20 19 19 20 21 21 nan nan nan nan nan nan nan nan nan nan nan 21 20 21 23 24 24 25 24 29 31 33 34 34 33 33 nan nan nan nan nan nan 27 26 26 26 26 24 22 21 23 24
16 14 12 12 12 11 11 11 10 11 12 12 12 11 10 9 10 11 13 13 15 15 15 12 12 13 12 12 12 12 18 18 15 17 18 19 20 nan 21 21 21 22 nan nan nan nan nan nan nan nan nan nan nan nan nan nan nan nan nan nan nan nan nan nan nan nan nan nan nan nan nan nan nan nan nan nan nan nan nan 29 29 28 28 nan nan
17 15 14 14 14 14 13 12 12 12 13 13 12 11 11 10 10 10 11 13 14 14 15 14 12 12 11 12 11 12 19 18 17 21 20 nan nan nan nan nan nan nan nan nan nan nan nan nan nan nan nan nan nan nan nan nan nan nan nan nan nan nan nan nan nan nan nan nan nan nan nan nan nan nan nan nan nan nan nan nan nan nan 30 nan nan
18 16 15 15 15 16 15 14 14 14 13 12 12 12 12 11 10 10 11 12 12 12 15 15 10 11 13 12 13 16 17 14 20 19 21 22 nan nan nan nan nan nan nan nan nan nan nan nan nan nan nan nan nan nan nan nan nan nan nan nan nan nan nan nan nan nan nan nan nan nan nan nan nan nan nan nan nan nan nan nan nan nan nan nan nan
17 16 16 16 16 16 16 15 15 15 13 13 12 12 11 11 10 10 10 11 11 17 17 12 12 14 13 13 14 16 15 17 18 20 21 23 nan nan nan nan nan nan nan nan nan nan nan nan nan nan nan nan nan nan nan nan nan nan nan nan nan nan nan nan nan nan nan nan nan nan nan nan nan nan nan nan nan nan nan nan nan nan nan nan nan
15 15 16 16 16 16 15 14 14 14 11 10 11 11 10 9 12 11 9 9 12 12 10 10 10 12 11 13 14 15 15 17 17 19 21 20 22 nan nan nan nan nan nan nan nan nan nan nan nan nan nan nan nan nan nan nan nan nan nan nan nan nan nan nan nan nan nan nan nan nan nan nan nan nan nan nan nan nan nan nan nan nan nan nan nan
16 17 17 17 17 15 14 12 11 11 10 9 9 9 10 9 11 11 10 8 9 10 7 6 7 8 9 10 12 14 14 15 17 18 20 22 24 nan nan nan nan nan nan nan nan nan nan nan nan nan nan nan nan nan nan nan nan nan nan nan nan nan nan nan nan nan nan nan nan nan nan nan nan nan nan nan nan nan nan nan nan nan nan nan nan
18 18 18 17 15 14 13 11 10 9 9 8 9 10 11 10 11 10 8 8 9 7 3 3 5 7 7 9 12 11 12 12 16 17 18 21 23 24 nan nan nan nan nan nan nan nan nan nan nan nan nan nan nan nan nan nan nan nan nan nan nan nan nan nan nan nan nan nan nan nan nan nan nan nan nan nan nan nan nan nan nan nan nan nan nan
17 17 18 16 15 13 11 10 10 9 9 8 8 11 10 11 11 10 9 8 6 3 5 5 6 6 7 11 13 12 12 14 15 16 18 20 22 23 nan nan nan nan nan nan nan nan nan nan nan nan nan nan nan nan nan nan nan nan nan nan nan nan nan nan nan nan nan nan nan nan nan nan nan nan nan nan nan nan nan nan nan nan nan nan nan
17 17 17 16 14 14 12 11 11 9 8 8 8 9 9 9 14 9 8 7 6 4 4 6 6 6 9 10 12 13 15 14 15 17 19 21 21 23 nan nan nan nan nan nan nan nan nan nan nan nan nan nan nan nan nan nan nan nan nan nan nan nan nan nan nan nan nan nan nan nan nan nan nan nan nan nan nan nan nan nan nan nan nan nan nan
16 18 17 16 15 13 12 12 13 11 10 9 8 8 8 11 9 8 7 6 6 6 7 7 7 6 9 9 12 13 14 14 16 16 18 20 21 22 24 nan nan nan nan nan nan nan nan nan nan nan nan nan nan nan nan nan nan nan nan nan nan nan nan nan nan nan nan nan nan nan nan nan nan nan nan nan nan nan nan nan nan nan nan nan nan
17 17 17 16 14 13 12 13 14 14 12 11 10 9 8 8 9 9 9 10 9 8 9 8 7 7 8 11 10 12 13 14 14 16 16 18 20 20 21 nan nan nan nan nan nan nan nan nan nan nan nan nan nan nan nan nan nan nan nan nan nan nan nan nan nan nan nan nan nan nan nan nan nan nan nan nan nan nan nan nan nan nan nan nan nan
17 17 17 16 14 12 13 14 14 13 14 14 13 13 12 12 13 14 13 13 12 12 12 11 11 11 11 12 11 13 13 14 nan 16 17 17 18 19 19 nan nan nan nan nan nan nan nan nan nan nan nan nan nan nan nan nan nan nan nan nan nan nan nan nan nan nan nan nan nan nan nan nan nan nan nan nan nan nan nan nan nan nan nan nan nan
18 17 16 14 11 10 10 12 12 13 14 15 15 15 15 15 16 17 17 17 16 16 15 14 14 13 14 14 14 15 15 15 16 16 17 16 17 18 17 nan nan nan nan nan nan nan nan nan nan nan nan nan nan nan nan nan nan nan nan nan nan nan nan nan nan nan nan nan nan nan nan nan nan nan nan nan nan nan nan nan nan nan nan nan nan
17 nan 13 11 10 8 8 9 10 11 12 13 13 13 13 15 16 17 17 16 16 17 16 15 15 14 15 15 15 16 17 17 17 nan 17 17 17 18 18 17 nan nan nan nan nan nan nan nan nan nan nan nan nan nan nan nan nan nan nan nan nan nan nan nan nan nan nan nan nan nan nan nan nan nan nan nan nan nan nan nan nan nan nan nan nan
14 14 12 11 10 9 8 8 10 11 11 12 11 12 11 12 13 14 15 14 15 15 15 15 15 14 14 14 15 16 17 17 18 18 nan nan 17 18 nan nan nan 18 20 nan nan nan nan nan nan nan nan nan nan nan nan nan nan nan nan nan nan nan nan nan nan nan nan nan nan nan nan nan nan nan nan nan nan nan nan nan nan nan nan nan nan
nan nan nan nan 13 12 12 11 12 12 12 12 11 11 11 11 11 12 nan nan nan nan nan nan 15 14 14 14 15 16 17 17 17 17 17 nan nan nan nan nan nan nan nan nan nan nan nan nan nan nan nan nan nan nan nan nan nan nan nan nan nan nan nan nan nan nan nan nan nan nan nan nan nan nan nan nan nan nan nan nan nan nan nan nan nan
nan nan nan nan nan nan nan nan nan nan nan nan nan nan nan nan nan nan nan nan nan nan nan nan nan nan nan nan 14 15 14 15 16 16 17 17 nan nan nan nan nan nan nan nan nan nan nan nan nan nan nan nan nan nan nan nan nan nan nan nan nan nan nan nan nan nan nan nan nan nan nan nan nan nan nan nan nan nan nan nan nan nan nan nan nan
nan nan nan nan nan nan nan nan nan nan nan nan nan nan nan nan nan nan nan nan nan nan nan nan nan nan nan nan nan nan 14 14 15 15 16 16 nan nan nan nan nan nan nan nan nan nan nan nan nan nan nan nan nan nan nan nan nan nan nan nan nan nan nan nan nan nan nan nan nan nan nan nan nan nan nan nan nan nan nan nan nan nan nan nan nan
nan nan nan nan nan nan nan nan nan nan nan nan nan nan nan nan nan nan nan nan nan nan nan nan nan nan nan nan nan nan nan 15 14 15 15 16 16 nan nan nan nan nan nan nan nan nan nan nan nan nan nan nan nan nan nan nan nan nan nan nan nan nan nan nan nan nan nan nan nan nan nan nan nan nan nan nan nan nan nan nan nan nan nan nan nan
nan nan nan nan nan nan nan nan nan nan nan nan nan nan nan nan nan nan nan nan nan nan nan nan nan nan nan nan nan nan nan 16 nan 15 16 16 16 15 15 nan nan nan nan nan nan nan nan nan nan nan nan nan nan nan nan nan nan nan nan nan nan nan nan nan nan nan nan nan nan nan nan nan nan nan nan nan nan nan nan nan nan nan nan nan nan
nan nan nan nan nan nan nan nan nan nan nan nan nan nan nan nan nan nan nan nan nan nan nan nan nan nan nan nan nan nan nan 16 17 17 nan nan nan 16 nan nan nan nan nan nan nan nan nan nan nan nan nan nan nan nan nan nan nan nan nan nan nan nan nan nan nan nan nan nan nan nan nan nan nan nan nan nan nan nan nan nan nan nan nan nan nan
nan nan nan nan nan nan nan nan nan nan nan nan nan nan nan nan nan nan nan nan nan nan nan nan nan nan nan nan nan nan nan 16 17 17 18 18 17 16 nan 17 nan nan nan nan nan nan nan nan nan nan nan nan nan nan nan nan nan nan nan nan nan nan nan nan nan nan nan nan nan nan nan nan nan nan nan nan nan nan nan nan nan nan nan nan nan
nan nan nan nan nan nan nan nan nan nan nan nan nan nan nan nan nan nan nan nan nan nan nan nan nan nan nan nan nan nan nan nan 18 19 19 19 20 18 18 nan nan nan nan nan nan nan nan nan nan nan nan nan nan nan nan nan nan nan nan nan nan nan nan nan nan nan nan nan nan nan nan nan nan nan nan nan nan nan nan nan nan nan nan nan nan
nan nan nan nan nan nan nan nan nan nan nan nan nan nan nan nan nan nan nan nan nan nan nan nan nan nan nan nan nan nan nan nan nan nan nan nan 20 18 19 18 18 nan nan nan nan nan nan nan nan nan nan nan nan nan nan nan nan nan nan nan nan nan nan nan nan nan nan nan nan nan nan nan nan nan nan nan nan nan nan nan nan nan nan nan nan
nan nan nan nan nan nan nan nan nan nan nan nan nan nan nan nan nan nan nan nan nan nan nan nan nan nan nan nan nan nan nan nan nan nan nan nan nan 19 20 19 18 nan nan nan nan nan nan nan nan nan nan nan nan nan nan nan nan nan nan nan nan nan nan nan nan nan nan nan nan nan nan nan nan nan nan nan nan nan nan nan nan nan nan nan nan
nan nan nan nan nan nan nan nan nan nan nan nan nan nan nan nan nan nan nan nan nan 20 nan nan nan nan nan nan nan nan nan nan nan nan nan nan nan nan nan nan nan 19 20 nan nan nan nan nan nan nan nan nan nan nan nan nan nan nan nan nan nan nan nan nan nan nan nan nan nan nan nan nan nan nan nan nan nan nan nan nan nan nan nan nan nan
nan nan nan nan nan nan nan nan nan nan nan nan nan nan nan nan nan nan nan nan nan nan nan nan nan nan nan 23 24 25 nan 23 24 nan nan nan nan nan nan nan nan nan nan 20 21 23 22 nan 20 19 nan nan nan 22 nan nan nan nan nan nan nan nan nan nan nan nan nan nan nan nan nan nan nan nan nan nan nan nan nan nan nan nan nan nan nan
nan nan nan nan nan nan nan nan nan nan nan nan nan nan nan nan nan nan nan nan nan nan nan nan nan nan nan 26 26 27 nan nan nan nan 27 29 nan nan nan nan nan nan nan nan nan 23 27 25 23 23 24 23 22 23 nan nan nan nan nan nan nan nan nan nan nan nan nan nan nan nan nan nan nan nan nan nan nan nan nan nan nan nan nan nan nan
nan nan nan nan nan nan nan nan nan nan nan nan nan nan nan nan nan nan nan nan nan nan nan nan nan nan nan nan nan 29 30 30 29 29 29 29 31 nan nan nan nan nan nan nan nan nan nan 29 30 29 30 34 29 30 36 nan nan nan nan nan nan nan nan nan nan nan nan nan nan nan nan nan nan nan nan nan nan nan nan nan nan nan nan nan nan
nan nan nan nan nan nan nan nan nan nan nan nan nan nan nan nan nan nan nan nan 32 nan nan nan nan nan nan nan 31 31 31 31 32 32 31 31 32 32 31 31 31 33 nan nan nan nan nan nan 34 34 36 40 37 42 nan nan nan nan nan nan nan nan nan nan nan nan nan nan nan nan nan nan nan nan nan nan nan nan nan nan nan nan nan nan nan
nan nan nan nan nan nan nan nan nan nan nan nan nan nan nan nan nan nan nan nan nan nan 37 nan nan nan nan nan 35 34 34 34 39 nan nan nan 34 33 33 33 34 37 nan nan nan nan nan nan nan 42 42 44 nan nan nan nan nan nan nan nan nan nan nan nan nan nan nan nan nan nan nan nan nan nan nan nan nan nan nan nan nan nan nan nan nan
nan nan nan nan nan nan nan nan nan nan nan nan nan nan nan nan nan nan nan nan nan nan nan nan 40 40 39 39 38 37 37 37 43 nan nan nan nan 36 36 37 39 41 nan nan nan nan nan nan nan nan nan nan nan nan nan nan nan nan nan nan nan nan nan nan nan nan nan nan nan nan nan nan nan nan nan nan nan nan nan nan nan nan nan nan nan
nan nan nan nan nan nan nan nan nan nan nan nan nan nan nan nan nan nan nan nan nan nan nan nan nan 43 45 44 39 40 39 39 45 42 42 43 40 41 41 41 41 42 43 49 nan nan nan 58 56 52 52 nan nan nan 49 nan nan nan nan nan nan nan nan nan nan nan nan nan nan nan nan nan nan nan nan nan nan nan nan nan nan nan nan nan nan
28 28 29 nan nan 33 34 36 38 39 40 42 nan nan nan nan nan nan nan nan nan nan nan nan nan nan 46 47 48 46 46 44 43 42 43 44 43 43 43 44 44 44 45 50 55 55 55 57 57 57 56 nan nan nan nan nan nan nan nan nan nan nan nan nan nan nan nan nan nan nan nan nan nan nan nan nan nan nan nan nan nan nan nan nan nan
Wind_Direction
282 281 280 278 277 277 277 276 274 274 276 273 272 270 266 265 267 274 274 276 274 272 274 280 283 282 277 275 268 264 263 261 260 258 256 255 255 257 256 254 253 250 258 257 257 258 261 265 268 269 270 271 nan nan nan nan nan nan nan nan nan nan nan nan nan nan nan nan nan nan nan nan nan nan nan nan nan nan nan nan nan nan nan nan nan
285 285 282 277 276 277 274 277 276 272 267 265 255 252 251 258 268 276 280 278 276 270 273 281 284 280 276 274 266 265 264 262 261 259 260 259 260 263 264 263 261 260 251 252 252 265 264 265 269 269 271 272 271 270 271 272 272 273 nan nan nan nan nan nan nan nan nan nan nan nan nan nan nan nan nan nan nan nan nan nan nan nan nan nan nan
287 286 284 282 276 273 272 275 273 264 254 250 241 238 240 257 272 276 277 274 271 273 276 278 277 278 271 269 266 263 261 260 261 262 262 262 264 266 266 259 255 251 249 249 254 267 267 269 271 271 272 271 271 270 269 269 270 272 273 nan nan nan nan nan nan nan nan nan nan nan nan nan nan nan nan nan nan nan nan nan nan nan nan nan nan
287 287 292 286 272 269 266 264 262 251 243 241 238 240 249 255 265 266 264 266 271 273 273 273 271 271 269 265 266 266 262 261 262 262 261 265 265 265 264 265 255 252 251 248 246 253 264 267 269 270 269 270 272 273 272 271 272 271 272 275 nan nan nan nan nan nan nan nan nan nan nan nan nan nan nan nan nan nan nan nan nan nan nan nan nan
283 290 288 284 277 267 259 251 244 243 239 239 247 255 259 264 264 264 264 268 272 275 271 261 261 265 262 261 259 256 259 260 265 267 267 266 266 266 267 265 266 260 254 252 249 252 254 258 262 260 263 265 267 268 270 271 272 278 280 280 279 277 280 nan nan nan nan nan nan nan nan nan nan nan nan nan nan nan nan nan nan nan nan nan nan
279 281 275 273 269 256 247 239 236 240 241 247 254 260 261 263 265 263 262 268 277 284 277 267 264 263 260 259 259 260 256 260 267 268 262 262 261 263 263 264 262 262 261 254 253 254 256 258 265 268 271 273 270 263 263 269 271 274 281 286 286 285 284 287 nan nan nan nan nan nan nan nan nan nan nan nan nan nan nan nan nan nan nan nan nan
263 261 265 261 253 246 237 234 236 242 247 254 260 253 256 259 261 263 264 273 279 285 279 268 265 255 246 248 246 244 259 266 269 267 263 260 260 259 255 255 254 256 255 263 263 260 264 267 271 272 274 277 275 270 268 271 274 275 284 295 298 294 288 283 287 nan nan nan nan nan nan nan nan nan nan nan nan nan nan nan nan nan nan nan nan
244 243 252 242 234 247 240 233 240 246 254 262 267 261 256 255 253 262 274 278 282 285 280 273 262 260 263 254 259 255 260 268 268 264 260 260 260 259 256 253 255 255 256 254 256 262 266 272 272 272 273 270 266 268 268 272 274 278 284 290 303 302 295 292 289 294 292 nan nan nan nan nan nan nan nan nan nan nan nan nan nan nan nan nan nan
245 243 244 228 233 248 240 243 247 255 264 267 264 257 260 258 255 256 269 280 280 283 281 268 258 254 257 261 256 260 263 266 270 265 262 261 261 260 257 256 255 257 257 258 259 264 260 259 266 266 265 262 264 266 272 275 275 282 287 292 297 304 304 301 301 301 299 301 308 nan nan nan nan nan nan nan nan nan nan nan nan nan nan nan nan
251 248 242 230 232 242 244 250 256 260 265 264 258 255 254 257 259 256 268 277 279 286 281 273 261 256 256 261 260 257 263 268 270 268 263 262 260 260 259 256 257 257 260 263 267 267 269 266 268 267 255 254 253 256 256 260 265 270 282 286 296 293 294 295 298 302 306 312 314 316 311 304 nan nan nan nan nan nan nan nan nan nan nan nan nan
253 247 247 241 239 244 248 255 256 257 260 260 258 258 259 256 259 266 262 268 277 282 280 266 261 257 262 265 264 263 260 262 263 268 269 265 264 265 263 262 261 263 265 268 272 273 268 261 263 268 nan nan nan nan 252 252 253 260 268 282 289 289 286 284 294 292 299 302 317 326 309 302 304 nan nan nan nan nan nan nan nan nan nan nan nan
258 251 247 246 245 246 249 251 251 252 254 256 257 257 262 265 265 271 271 269 274 277 276 268 259 255 256 254 253 262 265 263 262 262 262 259 260 263 264 264 264 264 265 268 270 269 260 258 257 nan nan nan nan nan nan nan 254 260 264 272 280 283 287 289 288 286 288 296 305 306 311 308 295 293 293 292 nan nan nan nan nan nan nan nan nan
256 252 248 246 243 242 243 242 240 241 244 248 251 253 255 259 264 267 277 278 281 285 278 264 264 254 249 251 250 248 251 250 250 253 259 258 261 265 266 267 266 265 266 267 268 265 259 nan nan nan nan nan nan nan nan nan 252 252 260 270 274 279 282 283 286 288 289 291 294 297 298 304 307 311 308 297 288 293 300 296 nan nan nan nan nan
253 247 242 237 235 235 237 240 239 237 239 243 249 253 258 263 269 270 275 280 278 282 280 277 268 265 264 261 256 250 245 245 247 250 259 260 260 263 263 265 271 272 268 266 265 nan nan nan nan nan nan nan nan 275 277 276 270 258 260 268 274 277 279 283 287 285 281 283 285 287 293 nan 292 295 298 292 278 278 283 287 300 304 nan nan nan
245 239 231 230 231 234 239 243 246 249 250 252 256 262 266 273 279 276 276 274 276 280 279 262 277 273 265 280 280 268 262 258 249 245 248 251 253 256 259 263 268 271 271 270 267 nan nan nan nan nan nan nan nan 279 280 279 270 262 261 266 273 277 278 280 281 282 280 280 279 279 281 285 290 287 287 288 282 279 280 285 277 294 295 269 nan
239 232 225 229 236 237 244 245 250 256 259 262 265 270 274 276 277 279 282 280 280 277 259 243 268 286 281 273 279 277 275 260 257 nan 250 251 254 256 261 267 270 271 272 269 nan nan nan nan nan nan nan nan nan nan 284 282 277 270 263 266 273 277 279 281 283 283 283 280 276 271 269 269 271 274 276 278 280 284 280 281 285 278 277 283 297
235 229 226 233 238 244 251 252 255 258 260 262 266 271 279 281 285 284 286 283 285 275 263 255 254 225 268 276 275 279 266 277 269 255 255 256 252 256 261 267 267 266 267 nan nan nan nan nan nan nan nan nan nan nan 286 283 280 277 277 271 274 278 282 282 284 283 280 278 277 nan nan nan nan nan nan 270 273 272 269 270 272 275 270 261 259
233 232 231 236 244 248 257 260 261 261 259 258 263 268 276 284 287 280 281 277 285 286 273 264 248 232 229 235 249 260 287 286 278 268 262 258 259 nan 260 263 267 268 nan nan nan nan nan nan nan nan nan nan nan nan nan nan nan nan nan nan nan nan nan nan nan nan nan nan nan nan nan nan nan nan nan nan nan nan nan 266 266 267 264 nan nan
238 239 241 246 251 256 259 262 263 262 262 261 262 268 273 276 275 276 279 273 278 284 286 276 260 246 239 238 248 259 289 289 280 284 281 nan nan nan nan nan nan nan nan nan nan nan nan nan nan nan nan nan nan nan nan nan nan nan nan nan nan nan nan nan nan nan nan nan nan nan nan nan nan nan nan nan nan nan nan nan nan nan 263 nan nan
243 245 250 256 258 261 264 266 266 264 264 264 262 262 264 263 269 266 266 266 272 275 275 266 276 266 245 254 262 277 285 257 292 293 290 288 nan nan nan nan nan nan nan nan nan nan nan nan nan nan nan nan nan nan nan nan nan nan nan nan nan nan nan nan nan nan nan nan nan nan nan nan nan nan nan nan nan nan nan nan nan nan nan nan nan
241 248 252 258 261 263 266 265 264 261 259 256 257 259 264 266 268 253 250 251 249 249 262 274 261 263 268 268 274 284 278 273 276 285 290 289 nan nan nan nan nan nan nan nan nan nan nan nan nan nan nan nan nan nan nan nan nan nan nan nan nan nan nan nan nan nan nan nan nan nan nan nan nan nan nan nan nan nan nan nan nan nan nan nan nan
253 256 259 260 260 262 261 262 259 259 256 258 260 258 251 250 251 239 237 238 230 249 266 270 267 273 268 273 282 282 283 281 283 281 283 286 294 nan nan nan nan nan nan nan nan nan nan nan nan nan nan nan nan nan nan nan nan nan nan nan nan nan nan nan nan nan nan nan nan nan nan nan nan nan nan nan nan nan nan nan nan nan nan nan nan
266 264 264 261 258 257 256 258 256 257 256 257 262 269 270 258 251 250 244 242 236 236 229 265 272 276 281 282 283 296 296 296 294 291 287 287 291 nan nan nan nan nan nan nan nan nan nan nan nan nan nan nan nan nan nan nan nan nan nan nan nan nan nan nan nan nan nan nan nan nan nan nan nan nan nan nan nan nan nan nan nan nan nan nan nan
263 259 256 255 254 252 251 252 252 252 253 252 256 262 270 268 260 262 260 253 248 262 296 297 309 284 285 273 268 262 270 282 290 289 289 291 295 299 nan nan nan nan nan nan nan nan nan nan nan nan nan nan nan nan nan nan nan nan nan nan nan nan nan nan nan nan nan nan nan nan nan nan nan nan nan nan nan nan nan nan nan nan nan nan nan
259 253 246 246 243 245 248 250 249 247 245 246 249 259 265 267 275 277 266 273 272 285 291 300 302 289 279 263 262 267 267 262 279 286 282 287 292 296 nan nan nan nan nan nan nan nan nan nan nan nan nan nan nan nan nan nan nan nan nan nan nan nan nan nan nan nan nan nan nan nan nan nan nan nan nan nan nan nan nan nan nan nan nan nan nan
253 246 239 237 233 233 237 242 246 249 249 246 244 254 275 268 264 265 275 271 269 306 294 278 276 279 260 265 263 266 264 271 279 282 286 290 293 295 nan nan nan nan nan nan nan nan nan nan nan nan nan nan nan nan nan nan nan nan nan nan nan nan nan nan nan nan nan nan nan nan nan nan nan nan nan nan nan nan nan nan nan nan nan nan nan
242 238 236 234 233 233 237 239 244 248 248 249 243 242 244 250 269 282 281 274 283 269 254 263 261 271 266 261 259 261 269 279 285 289 292 295 295 298 298 nan nan nan nan nan nan nan nan nan nan nan nan nan nan nan nan nan nan nan nan nan nan nan nan nan nan nan nan nan nan nan nan nan nan nan nan nan nan nan nan nan nan nan nan nan nan
235 238 237 238 240 243 245 245 246 245 243 244 246 240 242 248 253 262 266 258 263 267 257 261 261 270 271 266 266 267 271 278 286 286 290 291 293 297 298 nan nan nan nan nan nan nan nan nan nan nan nan nan nan nan nan nan nan nan nan nan nan nan nan nan nan nan nan nan nan nan nan nan nan nan nan nan nan nan nan nan nan nan nan nan nan
240 237 242 243 246 249 250 247 244 243 245 245 245 245 250 251 255 262 265 267 267 270 264 261 260 266 268 276 275 273 276 277 nan 282 284 288 295 298 299 nan nan nan nan nan nan nan nan nan nan nan nan nan nan nan nan nan nan nan nan nan nan nan nan nan nan nan nan nan nan nan nan nan nan nan nan nan nan nan nan nan nan nan nan nan nan
247 244 242 245 244 245 250 247 239 237 238 241 244 248 252 252 256 259 260 265 266 263 263 261 260 262 267 273 275 278 278 285 285 287 289 294 297 299 298 nan nan nan nan nan nan nan nan nan nan nan nan nan nan nan nan nan nan nan nan nan nan nan nan nan nan nan nan nan nan nan nan nan nan nan nan nan nan nan nan nan nan nan nan nan nan
256 nan 247 243 237 232 243 253 250 245 239 241 244 248 252 256 257 258 259 263 264 263 260 258 257 261 267 274 275 275 278 282 284 nan 291 296 299 297 292 292 nan nan nan nan nan nan nan nan nan nan nan nan nan nan nan nan nan nan nan nan nan nan nan nan nan nan nan nan nan nan nan nan nan nan nan nan nan nan nan nan nan nan nan nan nan
257 255 251 251 248 247 249 260 267 261 254 246 245 248 248 250 256 259 260 264 266 265 264 262 262 265 272 276 277 275 278 281 285 287 nan nan 293 294 nan nan nan 293 301 nan nan nan nan nan nan nan nan nan nan nan nan nan nan nan nan nan nan nan nan nan nan nan nan nan nan nan nan nan nan nan nan nan nan nan nan nan nan nan nan nan nan
nan nan nan nan 263 263 269 270 270 266 259 251 244 247 247 251 251 258 nan nan nan nan nan nan 268 271 274 276 277 274 279 283 283 285 290 nan nan nan nan nan nan nan nan nan nan nan nan nan nan nan nan nan nan nan nan nan nan nan nan nan nan nan nan nan nan nan nan nan nan nan nan nan nan nan nan nan nan nan nan nan nan nan nan nan nan
nan nan nan nan nan nan nan nan nan nan nan nan nan nan nan nan nan nan nan nan nan nan nan nan nan nan nan nan 282 282 288 294 290 296 294 296 nan nan nan nan nan nan nan nan nan nan nan nan nan nan nan nan nan nan nan nan nan nan nan nan nan nan nan nan nan nan nan nan nan nan nan nan nan nan nan nan nan nan nan nan nan nan nan nan nan
nan nan nan nan nan nan nan nan nan nan nan nan nan nan nan nan nan nan nan nan nan nan nan nan nan nan nan nan nan nan 286 294 297 295 293 299 nan nan nan nan nan nan nan nan nan nan nan nan nan nan nan nan nan nan nan nan nan nan nan nan nan nan nan nan nan nan nan nan nan nan nan nan nan nan nan nan nan nan nan nan nan nan nan nan nan
nan nan nan nan nan nan nan nan nan nan nan nan nan nan nan nan nan nan nan nan nan nan nan nan nan nan nan nan nan nan nan 293 295 291 293 294 297 nan nan nan nan nan nan nan nan nan nan nan nan nan nan nan nan nan nan nan nan nan nan nan nan nan nan nan nan nan nan nan nan nan nan nan nan nan nan nan nan nan nan nan nan nan nan nan nan
nan nan nan nan nan nan nan nan nan nan nan nan nan nan nan nan nan nan nan nan nan nan nan nan nan nan nan nan nan nan nan 287 nan 291 293 298 298 296 298 nan nan nan nan nan nan nan nan nan nan nan nan nan nan nan nan nan nan nan nan nan nan nan nan nan nan nan nan nan nan nan nan nan nan nan nan nan nan nan nan nan nan nan nan nan nan
nan nan nan nan nan nan nan nan nan nan nan nan nan nan nan nan nan nan nan nan nan nan nan nan nan nan nan nan nan nan nan 282 286 287 nan nan nan 295 nan nan nan nan nan nan nan nan nan nan nan nan nan nan nan nan nan nan nan nan nan nan nan nan nan nan nan nan nan nan nan nan nan nan nan nan nan nan nan nan nan nan nan nan nan nan nan
nan nan nan nan nan nan nan nan nan nan nan nan nan nan nan nan nan nan nan nan nan nan nan nan nan nan nan nan nan nan nan 274 280 285 287 288 285 290 nan 288 nan nan nan nan nan nan nan nan nan nan nan nan nan nan nan nan nan nan nan nan nan nan nan nan nan nan nan nan nan nan nan nan nan nan nan nan nan nan nan nan nan nan nan nan nan
nan nan nan nan nan nan nan nan nan nan nan nan nan nan nan nan nan nan nan nan nan nan nan nan nan nan nan nan nan nan nan nan 272 276 281 282 280 282 280 nan nan nan nan nan nan nan nan nan nan nan nan nan nan nan nan nan nan nan nan nan nan nan nan nan nan nan nan nan nan nan nan nan nan nan nan nan nan nan nan nan nan nan nan nan nan
nan nan nan nan nan nan nan nan nan nan nan nan nan nan nan nan nan nan nan nan nan nan nan nan nan nan nan nan nan nan nan nan nan nan nan nan 272 274 273 275 277 nan nan nan nan nan nan nan nan nan nan nan nan nan nan nan nan nan nan nan nan nan nan nan nan nan nan nan nan nan nan nan nan nan nan nan nan nan nan nan nan nan nan nan nan
nan nan nan nan nan nan nan nan nan nan nan nan nan nan nan nan nan nan nan nan nan nan nan nan nan nan nan nan nan nan nan nan nan nan nan nan nan 255 262 272 273 nan nan nan nan nan nan nan nan nan nan nan nan nan nan nan nan nan nan nan nan nan nan nan nan nan nan nan nan nan nan nan nan nan nan nan nan nan nan nan nan nan nan nan nan
nan nan nan nan nan nan nan nan nan nan nan nan nan nan nan nan nan nan nan nan nan 254 nan nan nan nan nan nan nan nan nan nan nan nan nan nan nan nan nan nan nan 273 275 nan nan nan nan nan nan nan nan nan nan nan nan nan nan nan nan nan nan nan nan nan nan nan nan nan nan nan nan nan nan nan nan nan nan nan nan nan nan nan nan nan nan
nan nan nan nan nan nan nan nan nan nan nan nan nan nan nan nan nan nan nan nan nan nan nan nan nan nan nan 260 260 260 nan 263 261 nan nan nan nan nan nan nan nan nan nan 272 277 279 281 nan 280 283 nan nan nan 288 nan nan nan nan nan nan nan nan nan nan nan nan nan nan nan nan nan nan nan nan nan nan nan nan nan nan nan nan nan nan nan
nan nan nan nan nan nan nan nan nan nan nan nan nan nan nan nan nan nan nan nan nan nan nan nan nan nan nan 254 257 259 nan nan nan nan 263 268 nan nan nan nan nan nan nan nan nan 276 280 284 283 284 289 287 289 288 nan nan nan nan nan nan nan nan nan nan nan nan nan nan nan nan nan nan nan nan nan nan nan nan nan nan nan nan nan nan nan
nan nan nan nan nan nan nan nan nan nan nan nan nan nan nan nan nan nan nan nan nan nan nan nan nan nan nan nan nan 257 260 263 262 262 262 262 266 nan nan nan nan nan nan nan nan nan nan 281 284 286 286 289 289 284 283 nan nan nan nan nan nan nan nan nan nan nan nan nan nan nan nan nan nan nan nan nan nan nan nan nan nan nan nan nan nan
nan nan nan nan nan nan nan nan nan nan nan nan nan nan nan nan nan nan nan nan 258 nan nan nan nan nan nan nan 261 259 259 260 261 261 261 264 267 268 271 273 275 276 nan nan nan nan nan nan 285 287 285 287 288 285 nan nan nan nan nan nan nan nan nan nan nan nan nan nan nan nan nan nan nan nan nan nan nan nan nan nan nan nan nan nan nan
nan nan nan nan nan nan nan nan nan nan nan nan nan nan nan nan nan nan nan nan nan nan 258 nan nan nan nan nan 261 261 261 261 266 nan nan nan 265 269 273 276 278 279 nan nan nan nan nan nan nan 284 285 284 nan nan nan nan nan nan nan nan nan nan nan nan nan nan nan nan nan nan nan nan nan nan nan nan nan nan nan nan nan nan nan nan nan
nan nan nan nan nan nan nan nan nan nan nan nan nan nan nan nan nan nan nan nan nan nan nan nan 262 263 264 262 262 261 260 261 262 nan nan nan nan 273 274 277 278 281 nan nan nan nan nan nan nan nan nan nan nan nan nan nan nan nan nan nan nan nan nan nan nan nan nan nan nan nan nan nan nan nan nan nan nan nan nan nan nan nan nan nan nan
nan nan nan nan nan nan nan nan nan nan nan nan nan nan nan nan nan nan nan nan nan nan nan nan nan 264 266 268 264 264 263 263 262 267 272 276 274 276 277 278 279 282 283 284 nan nan nan 281 283 284 283 nan nan nan 291 nan nan nan nan nan nan nan nan nan nan nan nan nan nan nan nan nan nan nan nan nan nan nan nan nan nan nan nan nan nan
256 260 259 nan nan 254 251 248 244 247 249 248 nan nan nan nan nan nan nan nan nan nan nan nan nan nan 264 269 270 265 263 261 258 263 269 276 273 275 276 277 279 281 282 284 284 285 285 285 284 284 284 nan nan nan nan nan nan nan nan nan nan nan nan nan nan nan nan nan nan nan nan nan nan nan nan nan nan nan nan nan nan nan nan nan nan